• In Belarus
  • List of Countries
  • For 7 days
  • Water Temperature
  • Satellite Maps
  • Weather Map
  • Weather Widgets
  • user-avatar
    Login

    Hourly Weather Bubanza

    Today, 20 October, Friday

    Time Temperature Precipitation Wind Pressure Humidity
    00:00 +23°C° 0 mm 1 mps 673 mmHg 81%
    01:00 +22°C° 0 mm 1 mps 673 mmHg 82%
    02:00 +22°C° 0 mm 1 mps 673 mmHg 83%
    03:00 +22°C° 0 mm 1 mps 673 mmHg 83%
    04:00 +21°C° 0 mm 1 mps 673 mmHg 83%
    05:00 +21°C° 0 mm 1 mps 673 mmHg 83%
    06:00 +23°C° 0 mm 1 mps 674 mmHg 77%
    07:00 +25°C° 0 mm 1 mps 674 mmHg 70%
    08:00 +26°C° 0 mm 1 mps 675 mmHg 64%
    09:00 +26°C° 0.9 mm 1 mps 675 mmHg 65%
    10:00 +27°C° 0.9 mm 1 mps 675 mmHg 67%
    11:00 +27°C° 0.9 mm 1 mps 675 mmHg 68%
    12:00 +26°C° 0.9 mm 1 mps 674 mmHg 69%
    13:00 +26°C° 0.9 mm 1 mps 674 mmHg 71%
    14:00 +26°C° 0.9 mm 1 mps 673 mmHg 72%
    15:00 +26°C° 0 mm 1 mps 673 mmHg 71%
    16:00 +26°C° 0 mm 1 mps 672 mmHg 70%
    17:00 +26°C° 0 mm 1 mps 672 mmHg 69%
    18:00 +25°C° 0 mm 1 mps 672 mmHg 74%
    19:00 +24°C° 0 mm 1 mps 673 mmHg 78%
    20:00 +20°C° 0 mm 0 mps 673 mmHg 83%
    21:00 +22°C° 0 mm 1 mps 673 mmHg 84%
    22:00 +22°C° 0 mm 1 mps 673 mmHg 84%
    23:00 +22°C° 0 mm 1 mps 674 mmHg 84%

    Tomorrow, 21 October, Saturday

    Time Temperature Precipitation Wind Pressure Humidity
    00:00 +21°C° 0 mm 1 mps 673 mmHg 84%
    01:00 +21°C° 0 mm 1 mps 673 mmHg 84%
    02:00 +21°C° 0 mm 1 mps 672 mmHg 84%
    03:00 +21°C° 0 mm 1 mps 672 mmHg 84%
    04:00 +21°C° 0 mm 1 mps 672 mmHg 83%
    05:00 +20°C° 0 mm 1 mps 673 mmHg 83%
    06:00 +23°C° 0 mm 1 mps 673 mmHg 73%
    07:00 +25°C° 0 mm 1 mps 674 mmHg 64%
    08:00 +27°C° 0 mm 1 mps 675 mmHg 55%
    09:00 +29°C° 0.1 mm 1 mps 675 mmHg 52%
    10:00 +30°C° 0.1 mm 2 mps 675 mmHg 50%
    11:00 +31°C° 0.1 mm 2 mps 675 mmHg 47%
    12:00 +31°C° 0.1 mm 2 mps 674 mmHg 48%
    13:00 +31°C° 0.1 mm 2 mps 673 mmHg 50%
    14:00 +30°C° 0.1 mm 2 mps 673 mmHg 51%
    15:00 +29°C° 0.5 mm 2 mps 672 mmHg 56%
    16:00 +28°C° 0.5 mm 2 mps 672 mmHg 60%
    17:00 +27°C° 0.5 mm 1 mps 672 mmHg 65%
    18:00 +26°C° 0.5 mm 1 mps 672 mmHg 70%
    19:00 +25°C° 0.5 mm 1 mps 672 mmHg 74%
    20:00 +23°C° 0.5 mm 1 mps 673 mmHg 79%
    21:00 +23°C° 0 mm 1 mps 673 mmHg 80%
    22:00 +23°C° 0 mm 1 mps 673 mmHg 81%
    23:00 +22°C° 0 mm 1 mps 673 mmHg 82%

    Day after tomorrow, 22 October, Sunday

    Time Temperature Precipitation Wind Pressure Humidity
    00:00 +22°C° 0 mm 1 mps 673 mmHg 82%
    01:00 +22°C° 0 mm 1 mps 672 mmHg 83%
    02:00 +21°C° 0 mm 1 mps 672 mmHg 83%
    03:00 +21°C° 0 mm 1 mps 672 mmHg 83%
    04:00 +21°C° 0 mm 1 mps 672 mmHg 83%
    05:00 +21°C° 0 mm 1 mps 672 mmHg 83%
    06:00 +23°C° 0 mm 1 mps 673 mmHg 75%
    07:00 +25°C° 0 mm 1 mps 674 mmHg 66%
    08:00 +27°C° 0 mm 2 mps 675 mmHg 58%
    09:00 +28°C° 0 mm 2 mps 675 mmHg 53%
    10:00 +30°C° 0 mm 2 mps 675 mmHg 47%
    11:00 +32°C° 0 mm 2 mps 675 mmHg 41%
    12:00 +32°C° 0 mm 2 mps 674 mmHg 40%
    13:00 +32°C° 0 mm 2 mps 673 mmHg 39%
    14:00 +32°C° 0 mm 2 mps 672 mmHg 38%
    15:00 +31°C° 0 mm 2 mps 672 mmHg 40%
    16:00 +31°C° 0 mm 2 mps 672 mmHg 43%
    17:00 +30°C° 0 mm 1 mps 671 mmHg 45%
    18:00 +28°C° 0 mm 1 mps 672 mmHg 50%
    19:00 +25°C° 0 mm 1 mps 672 mmHg 55%
    20:00 +21°C° 0 mm 0 mps 672 mmHg 60%
    21:00 +23°C° 0 mm 1 mps 672 mmHg 61%
    22:00 +23°C° 0 mm 1 mps 672 mmHg 62%
    23:00 +22°C° 0 mm 1 mps 673 mmHg 63%

    23 October, Monday

    Time Temperature Precipitation Wind Pressure Humidity
    00:00 +22°C° 0 mm 1 mps 672 mmHg 63%
    01:00 +22°C° 0 mm 1 mps 672 mmHg 63%
    02:00 +21°C° 0 mm 1 mps 671 mmHg 63%
    03:00 +21°C° 0 mm 1 mps 671 mmHg 64%
    04:00 +21°C° 0 mm 1 mps 671 mmHg 64%
    05:00 +20°C° 0 mm 1 mps 672 mmHg 65%
    06:00 +23°C° 0 mm 1 mps 672 mmHg 58%
    07:00 +25°C° 0 mm 1 mps 673 mmHg 51%
    08:00 +28°C° 0 mm 1 mps 674 mmHg 43%
    09:00 +29°C° 0 mm 2 mps 674 mmHg 40%
    10:00 +31°C° 0 mm 2 mps 674 mmHg 37%
    11:00 +34°C° 0 mm 2 mps 674 mmHg 34%
    12:00 +34°C° 0 mm 2 mps 673 mmHg 35%
    13:00 +34°C° 0 mm 2 mps 672 mmHg 36%
    14:00 +34°C° 0 mm 2 mps 671 mmHg 36%
    15:00 +32°C° 0 mm 2 mps 671 mmHg 39%
    16:00 +31°C° 0 mm 1 mps 671 mmHg 42%
    17:00 +30°C° 0 mm 1 mps 671 mmHg 45%
    18:00 +28°C° 0 mm 1 mps 671 mmHg 49%
    19:00 +24°C° 0 mm 0 mps 672 mmHg 53%
    20:00 +23°C° 0 mm 0 mps 672 mmHg 57%
    21:00 +22°C° 0 mm 0 mps 672 mmHg 59%
    22:00 +23°C° 0 mm 1 mps 672 mmHg 61%
    23:00 +23°C° 0 mm 1 mps 672 mmHg 62%

    24 October, Tuesday

    Time Temperature Precipitation Wind Pressure Humidity
    00:00 +23°C° 0 mm 1 mps 671 mmHg 63%
    01:00 +22°C° 0 mm 1 mps 671 mmHg 64%
    02:00 +22°C° 0 mm 1 mps 670 mmHg 65%
    03:00 +21°C° 0 mm 1 mps 671 mmHg 66%
    04:00 +21°C° 0 mm 1 mps 671 mmHg 67%
    05:00 +21°C° 0 mm 1 mps 671 mmHg 68%
    06:00 +23°C° 0 mm 1 mps 672 mmHg 60%
    07:00 +26°C° 0 mm 1 mps 673 mmHg 52%
    08:00 +29°C° 0 mm 1 mps 674 mmHg 44%
    09:00 +30°C° 0 mm 1 mps 674 mmHg 41%
    10:00 +31°C° 0 mm 2 mps 674 mmHg 38%
    11:00 +34°C° 0 mm 2 mps 673 mmHg 35%
    12:00 +34°C° 0 mm 2 mps 672 mmHg 36%
    13:00 +34°C° 0 mm 2 mps 671 mmHg 37%
    14:00 +32°C° 0 mm 2 mps 670 mmHg 38%
    15:00 +32°C° 0 mm 2 mps 670 mmHg 40%
    16:00 +31°C° 0 mm 1 mps 671 mmHg 43%
    17:00 +30°C° 0 mm 1 mps 671 mmHg 45%
    18:00 +28°C° 0 mm 1 mps 671 mmHg 50%
    19:00 +25°C° 0 mm 0 mps 672 mmHg 54%
    20:00 +23°C° 0 mm 0 mps 672 mmHg 59%
    21:00 +23°C° 0 mm 0 mps 672 mmHg 61%
    22:00 +22°C° 0 mm 0 mps 672 mmHg 63%
    23:00 +21°C° 0 mm 0 mps 672 mmHg 65%

    25 October, Wednesday

    Time Temperature Precipitation Wind Pressure Humidity
    00:00 +21°C° 0 mm 0 mps 672 mmHg 66%
    01:00 +23°C° 0 mm 1 mps 671 mmHg 68%
    02:00 +22°C° 0 mm 1 mps 671 mmHg 69%
    03:00 +22°C° 0.1 mm 1 mps 671 mmHg 70%
    04:00 +22°C° 0.1 mm 1 mps 671 mmHg 71%
    05:00 +22°C° 0.1 mm 1 mps 672 mmHg 72%
    06:00 +24°C° 0 mm 1 mps 673 mmHg 67%
    07:00 +26°C° 0 mm 1 mps 673 mmHg 61%
    08:00 +29°C° 0 mm 1 mps 674 mmHg 55%
    09:00 +29°C° 0.5 mm 1 mps 674 mmHg 54%
    10:00 +30°C° 0.5 mm 1 mps 673 mmHg 54%
    11:00 +31°C° 0.5 mm 2 mps 673 mmHg 53%
    12:00 +31°C° 1.1 mm 2 mps 672 mmHg 54%
    13:00 +31°C° 1.1 mm 2 mps 672 mmHg 54%
    14:00 +32°C° 1.1 mm 2 mps 671 mmHg 54%
    15:00 +31°C° 1.3 mm 2 mps 671 mmHg 58%
    16:00 +30°C° 1.3 mm 1 mps 671 mmHg 61%
    17:00 +29°C° 1.3 mm 1 mps 671 mmHg 64%
    18:00 +27°C° 1.1 mm 1 mps 671 mmHg 69%
    19:00 +26°C° 1.1 mm 1 mps 672 mmHg 75%
    20:00 +22°C° 1.1 mm 0 mps 672 mmHg 80%
    21:00 +22°C° 0.5 mm 0 mps 672 mmHg 82%
    22:00 +21°C° 0.5 mm 0 mps 672 mmHg 83%
    23:00 +21°C° 0.5 mm 0 mps 672 mmHg 84%
    Show more